GALAXY 17 (G-17)

Last updated on Tue Sep 22 2026 00:03:11 GMT+0000 (Coordinated Universal Time)

1 31307U 07016B 26264.54349759 -.00000209 00000+0 00000+0 0 9994 2 31307 3.2077 78.6128 0003483 128.5959 263.8986 1.00272680 70773
UTC large
Height (km)
Speed (km/s)
/
Latitude / Longitude
Inclination (degrees)
Orbital Period (minutes)
Azimuth
Elevation
Range (km)
Doppler Factor

Next 0 passes for location: London (51.5072 / 0.1276)

No passes found over London.
GALAXY 17 (G-17)